Regional Weather Roundup
Issued by NWS

Home | Current Version | Previous Version | Graphics & Text | Print | Product List | Glossary On
Versions: 1 2 3 4 5 6 7 8 9 10 11 12 13 14 15 16 17 18 19 20 21 22 23 24 25 26 27 28 29 30 31 32 33 34 35 36 37 38 39 40 41 42 43 44 45 46 47 48 49 50
000
ASUS43 KOAX 052310
RWRNE

WEATHER ROUNDUP FOR NEBRASKA
NATIONAL WEATHER SERVICE OMAHA NE
600 PM CDT TUE MAY 05 2015

NOTES: SATELLITE DATA IS BEING USED TO AUGMENT CLOUD COVER ABOVE
       12000 FEET.
       "FAIR" INDICATES FEW OR NO CLOUDS BELOW 12,000 FEET WITH NO
       SIGNIFICANT WEATHER AND/OR OBSTRUCTIONS TO VISIBILITY.

  * THESE STATIONS DO NOT REPORT WEATHER SUCH AS RAIN...SNOW OR FOG.

NEZ001>004-019>022-054>056-060000-
NEBRASKA PANHANDLE

CITY           SKY/WX    TMP DP  RH WIND       PRES   REMARKS
SCOTTSBLUFF    CLOUDY    56  51  84 SE15      29.87F
ALLIANCE       LGT RAIN  56  53  90 SE13      29.88F
CHADRON        CLOUDY    62  50  64 SE18      29.86F
KIMBALL        LGT RAIN  53  52  96 SE12      29.86F
SIDNEY         LGT RAIN  54  52  93 E10       29.88F FOG
$$

NEZ057>060-069>072-079>082-060000-
SOUTHWEST NEBRASKA

CITY           SKY/WX    TMP DP  RH WIND       PRES   REMARKS
NORTH PLATTE   LGT RAIN  62  59  90 S5        29.90F
IMPERIAL       LGT RAIN  59  54  83 SE20G25   29.85F
LEXINGTON      CLOUDY    66  60  80 S8        29.90S
MCCOOK         CLOUDY    65  52  62 SE22G35   29.86F
OGALLALA       CLOUDY    59  57  91 E8        29.88F
$$

NEZ005>010-023>029-035>040-094-060000-
NORTH CENTRAL NEBRASKA

CITY           SKY/WX    TMP DP  RH WIND       PRES   REMARKS
VALENTINE      CLOUDY    61  58  90 SE10      29.92F
AINSWORTH      CLOUDY    63  60  91 E8        29.92F
BROKEN BOW     CLOUDY    65  57  75 S12       29.90R
O`NEILL        CLOUDY    73  58  60 SE10      29.93F
ORD            PTSUNNY   72  51  47 SE16G29   29.89F
THEDFORD       CLOUDY    58  56  93 SE8       29.92F
$$

NEZ041-046>049-061>064-073>077-083>087-060000-
SOUTH CENTRAL NEBRASKA

CITY           SKY/WX    TMP DP  RH WIND       PRES   REMARKS
GRAND ISLAND   CLOUDY    73  51  46 SE20G31   29.93F
AURORA         CLOUDY    74  54  49 SE20      29.93F
HASTINGS       CLOUDY    72  49  44 S17G29    29.92F
HEBRON         PTSUNNY   75  48  39 SE17G25   29.93F
HOLDREGE       CLOUDY    69  51  53 SE18      29.90S
KEARNEY *      CLOUDY    72  50  46 SE24      29.91S
YORK           PTSUNNY   73  57  56 SE17G24   29.94F
$$

NEZ011>018-030>034-042>045-060000-
NORTHEAST NEBRASKA

CITY           SKY/WX    TMP DP  RH WIND       PRES   REMARKS
NORFOLK        CLOUDY    73  59  61 SE14G24   29.95F
ALBION         CLOUDY    72  53  50 SE18      29.93F
BLAIR          CLOUDY    74  60  61 SE7       29.98F
COLUMBUS *     CLOUDY    73  55  53 SE15      29.96F
FREMONT        CLOUDY    76  60  57 SE10      29.98F
TEKAMAH        CLOUDY    76  60  57 SE14      29.97F
WAYNE          CLOUDY    74  60  62 S14       29.97F
$$

NEZ050>053-065>068-078-088>093-060000-
SOUTHEAST NEBRASKA

CITY           SKY/WX    TMP DP  RH WIND       PRES   REMARKS
LINCOLN        CLOUDY    75  56  51 SE20G25   29.96F
OMAHA EPPLEY   CLOUDY    77  57  50 S20       29.98F
BEATRICE       PTSUNNY   75  54  47 SE14G21   29.95F
FALLS CITY     CLOUDY    77  55  46 SE13      29.98F
NEBRASKA CITY  CLOUDY    75  54  48 S14       29.99F
PLATTSMOUTH    CLOUDY    75  56  50 SE10      30.00S
$$

NEZ044-045-051>053-067-060000-
OMAHA AREA

CITY           SKY/WX    TMP DP  RH WIND       PRES   REMARKS
OMAHA EPPLEY   CLOUDY    77  57  50 S20       29.98F
BLAIR          CLOUDY    74  60  61 SE7       29.98F
FREMONT        CLOUDY    76  60  57 SE10      29.98F
MILLARD        CLOUDY    77  58  52 SE13      29.98S
OFFUTT AFB     CLOUDY    75  59  57 SE12      29.98F
PLATTSMOUTH    CLOUDY    75  56  50 SE10      30.00S
$$


USA.gov is the U.S. government's official web portal to all federal, state and local government web resources and services.